Location: Nemiskam
(49.4820°N, 111.2775°W)
Time: 14:57:56
(UTC+00:00)

N. Korean satellite - Visible Passes

Search period start: 03 December 2022 00:00
Search period end: 13 December 2022 00:00
Orbit: 421 x 453 km, 97.3° (Epoch: 02 December)

Date Brightness Start Highest point End Pass type
(mag) Time Alt. Az. Time Alt. Az. Time Alt. Az.
03 Dec 9.4 00:40:06 10° SW 00:42:42 21° W 00:45:21 10° NW visible
03 Dec 9.3 11:55:36 10° NE 11:57:57 17° E 12:00:16 10° SE visible
03 Dec 6.9 13:27:26 10° N 13:30:36 35° WNW 13:33:43 10° SW visible
04 Dec 7.1 00:00:21 10° S 00:03:41 60° WSW 00:07:06 10° NNW visible
04 Dec 6.5 12:48:23 10° NNE 12:51:49 75° ESE 12:55:11 10° S visible
04 Dec 8.5 14:23:12 10° NW 14:23:46 10° WNW 14:24:21 10° WNW visible
05 Dec 9.7 00:55:40 10° SW 00:57:36 14° W 00:59:33 10° NW visible
05 Dec 8.7 12:09:55 10° NE 12:12:48 24° E 12:15:37 10° SSE visible
05 Dec 7.4 13:42:24 10° N 13:45:15 25° WNW 13:48:03 10° WSW visible
06 Dec 8.1 00:15:14 10° S 00:18:26 39° W 00:21:40 10° NNW visible
06 Dec 6.2 13:03:04 10° N 13:06:29 71° WNW 13:09:50 10° SSW visible
07 Dec 8.0 12:24:17 10° NNE 12:27:27 36° E 12:30:35 10° SSE visible
07 Dec 7.9 13:57:21 10° NNW 13:59:43 18° WNW 14:02:03 10° WSW visible
08 Dec 8.9 00:30:08 10° SSW 00:33:03 26° W 00:36:01 10° NW visible
08 Dec 9.7 11:46:27 10° ENE 11:48:11 13° E 11:49:53 10° ESE visible
08 Dec 6.6 13:17:40 10° N 13:20:57 46° WNW 13:24:11 10° SW visible
09 Dec 7.1 12:38:36 10° NNE 12:41:57 54° E 12:45:14 10° S visible
09 Dec 8.2 14:12:25 10° NNW 14:14:01 13° WNW 14:15:36 10° W visible
10 Dec 9.5 00:45:06 10° SW 00:47:34 19° W 00:50:03 10° NW visible
10 Dec 9.2 12:00:12 10° NE 12:02:41 19° E 12:05:08 10° SE visible
10 Dec 7.1 13:32:13 10° N 13:35:16 31° WNW 13:38:16 10° SW visible
11 Dec 7.4 00:04:58 10° S 00:08:17 53° W 00:11:39 10° NNW visible
11 Dec 6.3 12:52:52 10° NNE 12:56:16 84° ESE 12:59:35 10° SSW visible
12 Dec 9.8 01:00:17 10° WSW 01:01:58 13° W 01:03:39 10° WNW visible
12 Dec 8.5 12:14:05 10° NE 12:17:01 27° E 12:19:53 10° SSE visible
12 Dec 7.5 13:46:42 10° NNW 13:49:24 22° WNW 13:52:04 10° WSW visible
